#timestamp,LO_Frequency,Hit,StdDev 
1679644815.8,286046984.2,N
1679644835.7,286046989.1,N
1679644855.5,286046992.7,N
1679644875.3,286046990.4,N
1679644895.2,286046991.1,N
1679644915.0,286046996.3,N
1679644915.9,286046996.3,N
1679644935.7,286046995.2,N
1679644955.6,286046991.1,N
1679644975.4,286046988.0,N
1679644995.3,286046990.1,N
1679645015.1,286046983.7,N
1679645035.8,286046986.8,N
1679645055.7,286046991.6,N
1679645075.5,286046992.9,N
1679645095.4,286046996.7,N
1679645115.2,286046997.6,N
1679645135.0,286046999.8,N
1679645135.9,286046999.8,N
1679645155.8,286046997.7,N
1679645175.6,286046992.5,N
1679645195.4,286046988.6,N
1679645215.3,286046987.5,N
1679645235.1,286046985.9,N
1679645255.9,286046985.0,N
1679645275.7,286046982.7,Y
1679645295.5,286046990.1,P
1679645315.4,286046994.9,P
1679645335.2,286046997.9,N
1679645355.0,286046995.2,N
1679645356.0,286046995.2,N
1679645375.8,286046994.0,N
1679645395.6,286046988.8,Y
1679645415.5,286046992.8,P
1679645435.3,286046992.5,P
1679645455.1,286046992.7,P
1679645475.9,286046990.3,Y
1679645495.7,286046998.7,P
1679645515.6,286047002.5,N
1679645535.4,286047004.4,N
1679645555.2,286047009.0,N
1679645575.1,286047001.9,N
1679645576.0,286047001.9,N
1679645595.8,286046996.8,N
1679645615.6,286046992.3,N
1679645635.5,286046987.6,N
1679645655.3,286046984.6,N
1679645675.2,286046983.9,N
1679645695.9,286046981.4,N
1679645715.7,286046979.0,N
1679645735.6,286046977.4,N
1679645755.4,286046981.7,N
1679645775.2,286046983.3,N
1679645795.1,286046985.1,N
1679645796.0,286046985.1,N
1679645815.8,286046987.4,N
1679645835.7,286046997.5,N
1679645855.5,286046997.1,N
1679645875.3,286046999.9,N
1679645895.2,286046999.3,N
1679645915.0,286046999.7,N
1679645915.9,286046999.7,N
1679645935.8,286046998.7,N
1679645955.6,286046997.9,N
1679645975.4,286047002.3,N
1679645995.3,286047008.9,N
1679646015.1,286047004.2,N
1679646035.8,286047001.5,N
1679646055.7,286047007.1,N
1679646075.5,286047002.2,N
1679646095.4,286046995.2,N
1679646115.2,286046991.7,N
1679646135.0,286046996.1,N
1679646135.9,286046996.1,N
1679646155.8,286046989.1,N
1679646175.6,286046991.9,N
1679646195.5,286046995.9,N
1679646215.3,286046990.6,N
1679646235.1,286046991.4,N
1679646255.9,286046994.1,N
1679646275.7,286046993.7,N
1679646295.5,286046993.5,N
1679646315.4,286046996.3,N
1679646335.2,286046994.2,N
1679646355.1,286046996.0,N
1679646356.0,286046996.0,N
1679646375.8,286047002.5,N
1679646395.6,286047003.2,N
1679646415.5,286047001.9,N
1679646435.3,286047002.5,N
1679646455.1,286047000.9,N
1679646475.9,286046997.0,N
1679646495.7,286046995.0,N
1679646515.6,286046997.5,N
1679646535.4,286046997.9,N
1679646555.2,286046995.0,N
1679646575.1,286046998.0,N
1679646576.0,286046998.0,N
1679646595.8,286046994.1,N
1679646615.6,286046992.9,N
1679646635.5,286046988.9,Y
1679646655.3,286046990.3,P
1679646675.2,286046990.5,P
1679646695.9,286046991.8,P
1679646715.7,286046990.6,Y
1679646735.6,286047002.6,P
1679646755.4,286046998.1,N
1679646775.3,286046998.2,N
1679646795.1,286047002.3,N
1679646796.0,286047002.3,N
1679646815.8,286047001.5,N
1679646835.7,286047005.9,N
1679646855.5,286047007.4,N
1679646875.3,286047009.2,N
1679646895.2,286047005.7,N
1679646915.0,286047000.8,N
1679646915.9,286047000.8,N
1679646935.8,286046994.4,N
1679646955.6,286046989.7,N
1679646975.4,286046988.4,N
1679646995.3,286046986.6,N
1679647015.1,286046982.1,N
1679647035.8,286046984.7,N
1679647055.7,286046985.0,N
1679647075.5,286046983.2,N
1679647095.4,286046978.9,N
1679647115.2,286046980.8,N
1679647135.0,286046979.3,N
1679647135.9,286046979.3,N
1679647155.8,286046979.0,N
1679647175.6,286046982.2,N
1679647195.4,286046983.4,N
1679647215.3,286046987.4,N
1679647235.1,286046989.3,N
1679647255.9,286046987.2,N
1679647275.7,286046995.5,N
1679647295.5,286046993.7,N
1679647315.4,286046989.7,N
1679647335.2,286046988.7,N
1679647355.0,286046993.2,N
1679647355.9,286046993.2,N
1679647375.8,286046988.8,N
1679647395.6,286046992.2,N
1679647415.5,286046989.5,N
1679647435.3,286046986.0,N
1679647455.1,286046983.0,N
1679647475.9,286046980.4,Y
1679647495.7,286046997.6,P
1679647515.5,286047003.6,N
1679647535.4,286047004.6,N
1679647555.2,286047001.3,N
1679647575.1,286047005.3,N
1679647576.0,286047005.3,N
1679647595.8,286047002.5,N
1679647615.7,286046999.0,N
1679647635.5,286046995.8,N
1679647655.3,286046992.0,N
1679647675.2,286046991.5,N
1679647695.0,286046991.1,N
1679647695.9,286046991.1,N
1679647715.8,286046988.5,N
1679647735.6,286046985.3,N
1679647755.4,286046984.4,N
1679647775.3,286046981.4,N
1679647795.1,286046980.5,N
1679647815.9,286046981.0,N
1679647835.7,286046983.2,N
1679647855.5,286046984.1,N
1679647875.4,286046988.2,N
1679647895.2,286046985.9,N
1679647915.0,286046991.6,N
1679647915.9,286046991.6,N
1679647935.8,286046996.9,N
1679647955.6,286046997.3,N
1679647975.4,286046993.6,N
1679647995.3,286046992.7,N
1679648015.1,286046987.5,N
1679648035.9,286046988.2,N
1679648055.7,286046985.5,N
1679648075.5,286046986.6,N
1679648095.4,286046985.2,N
1679648115.2,286046983.0,N
1679648135.0,286046984.2,N
1679648136.0,286046984.2,N
1679648155.8,286046988.5,N
1679648175.6,286046992.8,N
1679648195.5,286046994.6,N
1679648215.3,286046992.2,N
1679648235.1,286046996.8,N
1679648255.9,286047003.4,N
1679648275.7,286046998.3,N
1679648295.6,286046993.6,N
1679648315.4,286046989.0,N
1679648335.2,286046986.5,N
1679648355.1,286046984.2,N
1679648356.0,286046984.2,N
1679648375.8,286046984.6,N
1679648395.7,286046984.8,N
